Voltar ao catálogo

SL-16 DEB

LostLEO
NORAD 39906·DEBRIS·🇷🇺 Russia

Lançado Mar 26, 1993 de Baikonur Cosmodrome

Loading…

Próximas Passagens (próximas 24 horas)

TLE

ObsoletoSource: Space-Track

Época: Sep 23, 2022, 09:15 UTC

1 39906U 93016CG  22266.38546950  .00004380  00000-0  17615-2 0  9991
2 39906  70.9716 272.5366 0116832  67.1174 294.2237 14.24958509932939

Acompanhe SL-16 DEB em tempo real com AllMySat

Download on the App Store